Flag for Isle of Man Weather past 2 weeks in Douglas, Isle of Man

Now
43 °F

Light rain. Overcast.


Feels Like: 37 °F
Forecast: 41 / 50 °F
Wind: 10 mph from Northwest

Location: Isle Of Man / Ronaldsway Airport

Current Time: Apr 25, 2015 at 12:51:39 PM

Latest Report: Apr 25, 2015 at 12:20 PM


Visibility: N/A

Pressure: 29.65 "Hg

Humidity: 61%

Dew point: 30 °F

Location of DouglasLocation

Historic Weather in Douglas — Graph

°F

Douglas temperature yesterday

Maximum temperature yesterday: 50 °F (at 10:20 AM)
Minimum temperature yesterday: 43 °F (at 5:50 AM)
Average temperature yesterday: 48 °F

Past Weeks' High & Low Weather Summary

 TemperatureHumidityPressure
High63 °F (Apr 23, 11:20 AM)100% (Apr 12, 8:50 AM)30.63 "Hg (Apr 12, 8:50 AM)
Low36 °F (Apr 13, 3:50 AM)39% (Apr 21, 6:50 PM)29.50 "Hg (Apr 25, 3:50 AM)
Average48 °F77%30.16 "Hg
* Reported Apr 10 11:20 AM — Apr 25 11:50 AM, Douglas, Weather by CustomWeather, © 2015

Note: Actual official high and low records may vary slightly from our data, if they occured in-between our weather recording intervals... More about our weather records

Advertising

Douglas weather history for previous 24 hours

 ConditionsComfort  
Time TempWeatherWind HumidityBarometerVisibility
11:50 AM
Sat, Apr 25
43 °FLight rain. Overcast.9 mph76%29.62 "HgN/A
11:20 AM43 °FLight rain. Overcast.15 mph76%29.62 "HgN/A
10:50 AM43 °FLight rain. Overcast.18 mph81%29.59 "HgN/A
10:20 AM43 °FLight rain. Overcast.20 mph87%29.59 "HgN/A
9:50 AM45 °FLight rain. Low clouds.21 mph81%29.56 "HgN/A
9:20 AM45 °FPartly sunny.17 mph81%29.56 "HgN/A
8:50 AM45 °FLight rain. Partly sunny.15 mph87%29.56 "HgN/A
8:20 AM45 °FLight rain. Partly sunny.14 mph93%29.53 "HgN/A
7:50 AM46 °FLight rain. Mostly cloudy.8 mph87%29.53 "HgN/A
7:20 AM48 °FLight rain. Cloudy.12 mph94%29.50 "HgN/A
6:50 AM50 °FPassing clouds.15 mph88%29.50 "HgN/A
6:20 AM48 °FPassing clouds.15 mph94%29.50 "HgN/A
5:50 AM50 °FPassing clouds.16 mph94%29.50 "HgN/A
4:50 AM48 °FPassing clouds.15 mph100%29.50 "HgN/A
3:50 AM48 °FPassing clouds.16 mph94%29.50 "HgN/A
2:50 AM48 °FPassing clouds.15 mph100%29.53 "HgN/A
1:50 AM48 °FPassing clouds.15 mph100%29.53 "Hg6 mi
12:50 AM48 °FPartly cloudy.17 mph100%29.56 "Hg5 mi
11:50 PM
Fri, Apr 24
48 °FPassing clouds.15 mph100%29.56 "Hg5 mi
10:50 PM48 °FLight rain. Low clouds.21 mph100%29.56 "Hg2 mi
9:50 PM48 °FFog.20 mph100%29.59 "Hg0 mi
9:20 PM48 °FFog.17 mph100%29.59 "Hg0 mi
8:50 PM48 °FFog.15 mph100%29.59 "Hg1 mi
8:20 PM48 °FFog.15 mph100%29.59 "Hg1 mi
7:50 PM48 °FFog.14 mph100%29.62 "Hg1 mi
7:20 PM48 °FFog.15 mph100%29.62 "Hg3 mi
6:50 PM48 °FFog.14 mph100%29.62 "Hg3 mi
6:20 PM48 °FLight rain. Low clouds.12 mph100%29.65 "Hg2 mi
5:50 PM48 °FLight rain. Low clouds.10 mph100%29.65 "Hg3 mi
5:20 PM48 °FLight rain. Low clouds.9 mph100%29.68 "Hg2 mi
4:50 PM48 °FLight rain. Fog.10 mph100%29.68 "Hg2 mi
4:20 PM48 °FLight rain. Fog.15 mph100%29.68 "Hg2 mi
3:50 PM50 °FFog.15 mph94%29.71 "Hg1 mi
3:20 PM48 °FFog.14 mph100%29.71 "Hg1 mi
2:50 PM48 °FFog.16 mph100%29.71 "Hg1 mi
2:20 PM48 °FFog.10 mph94%29.74 "Hg1 mi
1:50 PM48 °FFog.9 mph94%29.74 "Hg2 mi
1:20 PM48 °FFog.9 mph94%29.74 "Hg2 mi
12:50 PM48 °FFog.9 mph87%29.77 "Hg3 mi
12:20 PM50 °FBroken clouds.12 mph82%29.77 "Hg4 mi
Weather by CustomWeather, © 2015

See weather overviewHow to use our weather pages